Regional Weather Roundup
Issued by NWS

Home | Current Version | Previous Version | Text Only | Print | Product List | Glossary On
Versions: 1 2 3 4 5 6 7 8 9 10 11 12 13 14 15 16 17 18 19 20 21 22 23 24 25 26 27 28 29 30 31 32 33 34 35 36 37 38 39 40 41 42 43 44 45 46 47 48 49 50
000
ASUS46 KLOX 230612
RWRCA

SOUTHERN CALIFORNIA WEATHER ROUNDUP
NATIONAL WEATHER SERVICE OXNARD CALIFORNIA
1100 PM PDT WED OCT 22 2014

NOTE: "FAIR" INDICATES FEW OR NO CLOUDS BELOW 12,000 FEET WITH NO
SIGNIFICANT WEATHER AND/OR OBSTRUCTIONS TO VISIBILITY.

  -  STATIONS PRECEEDED BY AN ASTERISK (*) ARE NOT NWS OR FAA
     STATIONS AND ARE NOT SUBJECT TO NWS AND FAA QUALITY CONTROL.

CAZ041-042-087-230700-
LA AND ORANGE COUNTY COASTAL AREAS


CITY           SKY/WX    TMP DP  RH WIND       PRES   REMARKS
L.A. DOWNTOWN  CLEAR     67  60  78 CALM      29.96R
L.A. AIRPORT   CLEAR     68  65  90 CALM      29.96R
LONG BEACH     CLEAR     68  61  78 CALM      29.96R

CITY           SKY/WX    TMP DP  RH WIND       PRES   REMARKS
AVALON           N/A     59 N/A N/A S2          N/A
FULLERTON      CLEAR     67  58  72 CALM      29.95R
*GETTY CENTER    N/A     72  45  37 S1          N/A
HAWTHORNE      CLEAR     69  64  84 CALM      29.96R
*LEO CARRILLO    N/A     65  45  49 N7          N/A
*LOS ALAMITOS  FAIR      64  62  93 CALM      29.96R
*REDONDO BEACH   N/A     64  60  87 CALM      29.95R
SANTA ANA      CLEAR     71  63  75 CALM      29.96R
STA MONICA APT CLEAR     66  60  81 CALM      29.96R
*STA MON PIER    N/A     67  61  82 N2        29.96R
*UCLA            N/A     64  54  68 NE2       29.94R

$$

CAZ547-548-048-230700-
LA COUNTY VALLEYS AND INLAND EMPIRE


CITY           SKY/WX    TMP DP  RH WIND       PRES   REMARKS
BURBANK        CLEAR     67  49  52 CALM      29.97R
VAN NUYS       CLEAR     69  50  50 CALM      29.97R

CITY           SKY/WX    TMP DP  RH WIND       PRES   REMARKS
CORONA AIRPORT CLEAR     58  52  80 CALM      29.99R
*CHATSWORTH      N/A     65  48  52 CALM      29.95R
CHINO          CLEAR     62  56  80 CALM      29.99R HAZE
*CLAREMONT       N/A     62  42  47 N2          N/A
MARCH AFB      CLEAR     62  47  58 W6        30.01R
*NORTHRIDGE      N/A     64  48  55 CALM        N/A
ONTARIO        PTCLDY    68  56  65 CALM      29.98S
*PASADENA        N/A     68  55  64 CALM        N/A
RIVERSIDE      CLEAR     68  51  54 CALM      29.99R
SAN BERNARDINO NOT AVBL
*SAN RAFAEL HI   N/A     70  52  53 CALM        N/A
*SAUGUS          N/A     66  38  35 SE6         N/A
*WHITEMAN AP   NOT AVBL
*WHITTIER HILL   N/A     69  55  60 SE2         N/A
*WOODLAND HILL   N/A     61  48  63 SE2         N/A

$$

CAZ054-055-230700-
LA AND SAN BERNARDINO COUNTY MOUNTAINS


CITY           SKY/WX    TMP DP  RH WIND       PRES   REMARKS
*ACTON           N/A     61  32  33 N2          N/A
*BIG BEAR AIRP CLEAR     37  19  48 CALM      30.30R
*BIG PINES       N/A     56  22  26 CALM        N/A
*CHILAO          N/A     64  28  25 E7          N/A
MT WILSON NWS    N/A     61  30  31 MISG        N/A
SANDBERG       CLEAR     66  29  24 CALM      30.16S
*WARM SPRINGS    N/A     69  29  22 N2          N/A

$$

CAZ028-029-059-060-099-230700-
ANTELOPE VALLEY AND SURROUNDING AREAS


CITY           SKY/WX    TMP DP  RH WIND       PRES   REMARKS
LANCASTER      CLEAR     56  29  35 W7        30.06R
PALMDALE       CLEAR     61  31  32 S3        30.06R
*POPPY PARK      N/A     59  26  28 NW7         N/A

CITY           SKY/WX    TMP DP  RH WIND       PRES   REMARKS
29 PALMS       CLEAR     68  31  25 NW3       30.10R
BARSTOW/DAGGET CLEAR     62  26  25 W6        30.02S
BISHOP         CLEAR     57  25  29 CALM      30.11R
CHINA LAKE     CLEAR     62  28  27 S7        30.04R
EDWARDS AFB    CLEAR     56  25  31 S2        30.04R
MOJAVE         FAIR      64  32  29 W3        30.07R
NEEDLES        PTCLDY    76  40  27 CALM      29.96R
VICTORVILLE    CLEAR     57  23  26 S3        30.08R

$$

CAZ039-040-230700-
VENTURA AND SANTA BARBARA COUNTY COAST


CITY           SKY/WX    TMP DP  RH WIND       PRES   REMARKS
CAMARILLO      CLEAR     64  54  69 NE5       29.95R
NWS OXNARD       N/A     62  55  77 CALM      29.94S
OXNARD AIRPORT CLEAR     64  54  69 NE5       29.95R
*POINT MUGU    PTCLDY    64  57  78 N5        29.95R
SBA APT/GOLETA PTCLDY    60  50  69 CALM      29.93S
*SANTA BARBARA   N/A     67  55  65 CALM      30.01S
*VENTURA         N/A     63  53  72 N3        29.99S

$$

CAZ044-045-230700-
VENTURA COUNTY VALLEYS


CITY           SKY/WX    TMP DP  RH WIND       PRES   REMARKS
*OJAI            N/A     55  49  78 CALM      29.91S
*FILLMORE        N/A     58  51  76 CALM      29.87S

$$

CAZ053-230700-
VENTURA COUNTY MOUNTAINS


CITY           SKY/WX    TMP DP  RH WIND       PRES   REMARKS
*LOCKWOOD VLY    N/A     43  25  49 MISG        N/A
*ROSE VALLEY     N/A     45  32  61 MISG        N/A

$$

CAZ034-035-036-230700-
CENTRAL COAST AND SANTA YNEZ VALLEY


CITY           SKY/WX    TMP DP  RH WIND       PRES   REMARKS
SAN LUIS OBISP PTCLDY    59  47  64 CALM      29.98R
SANTA MARIA    CLEAR     60  51  72 S3        29.98S

CITY           SKY/WX    TMP DP  RH WIND       PRES   REMARKS
*CAL POLY SLO    N/A     72  41  33 VRB6G16     N/A
*LOMPOC        CLEAR     55  48  76 CALM      29.98S
*PISMO BEACH     N/A     63  47  57 NE2       29.98S
*SANTA YNEZ    FAIR      55  48  76 CALM      29.99S

$$

CAZ037-038-051-230700-
SAN LUIS OBISPO COUNTY INTERIOR AND CUYAMA VALLEY


CITY           SKY/WX    TMP DP  RH WIND       PRES   REMARKS
*CUYAMA          N/A     51  41  70 SE2       30.05F
PASO ROBLES    PTCLDY    59  36  42 CALM      30.05R

$$

CAZ032-033-061-230700-
SOUTHERN DESERTS


CITY           SKY/WX    TMP DP  RH WIND       PRES   REMARKS
BLYTHE         PTCLDY    79  43  27 W7        29.92R
IMPERIAL       PTCLDY    70  55  59 W7        29.89S
PALM SPRINGS   PTCLDY    77  28  16 NW8       29.96R
THERMAL        PTCLDY    65  48  54 N5        29.89R

$$

ELSEWHERE ACROSS THE WESTERN UNITED STATES AND MEXICO


CITY           SKY/WX    TMP DP  RH WIND       PRES   REMARKS
DENVER, CO     PTCLDY    50  41  71 SW9       30.15S
GRAND CANYON,  PTCLDY    35  26  69 CALM      30.28S
HONOLULU, HI   LGT RAIN  75  73  94 N5        30.02R
KAHULUI, MAUI  PTCLDY    75  72  88 S5        30.02R
LAKE TAHOE, CA PTCLDY    46  27  47 SW3       30.19R
LAS VEGAS, NV  PTCLDY    70  29  21 SW9       30.00S
MAMMOTH LAKES, FAIR      39  16  38 CALM      30.27S
MEXICO CITY, M MOCLDY    59  50  72 N3        30.33S
PHOENIX, AZ    CLEAR     76  54  46 CALM      29.94S
PORTLAND, OR   LGT RAIN  56  52  86 S3        29.79R
RENO, NV       MOCLDY    58  28  32 NW8       30.10S
SALT LAKE CITY PTCLDY    48  34  58 S8        30.15F
SAN DIEGO, CA  PTCLDY    68  62  81 CALM      29.98R
SAN FRANCISCO, MOCLDY    66  60  81 CALM      30.05S
SAN JOSE, CA   CLOUDY    62  57  83 CALM      30.05F
SEATTLE, WA    CLOUDY    57  50  77 S16G24    29.69R
TIJUANA, MEX   CLEAR     63  57  82 CALM      29.99

$$

STATION/POSITION TIME  TEMP    WIND        PRES    VSBY  WAVE
                       AIR SEA DIR/SP/G                  HT/PER
                 (UTC) (F)     (DEG/KT/KT) (MB)    (MI)  (FT/S)
POINT ARGUELLO B NOT AVBL
WEST SANTA BARBA 0600   65 65  320/ 17/ 21 1013.0R         9/13
POINT CONCEPTION NOT AVBL
EAST SANTA BARBA 0500          290/  4       N/A
SANTA MONICA BAY 0600   69 72  250/  6/  6 1013.9R         5/13



USA.gov is the U.S. government's official web portal to all federal, state and local government web resources and services.